Regional Weather Roundup
Issued by NWS

Home | Current Version | Previous Version | Text Only | Print | Product List | Glossary On
Versions: 1 2 3 4 5 6 7 8 9 10 11 12 13 14 15 16 17 18 19 20 21 22 23 24 25 26 27 28 29 30 31 32 33 34 35 36 37 38 39 40 41 42 43 44 45 46 47 48 49 50
339
ASUS43 KMPX 110810
RWRMN
WEATHER ROUNDUP FOR MINNESOTA
NATIONAL WEATHER SERVICE TWIN CITIES/CHANHASSEN MN
200 AM CST SUN DEC 11 2016


NOTE: "FAIR" INDICATES FEW OR NO CLOUDS BELOW 12,000 FEET WITH NO
SIGNIFICANT WEATHER AND/OR OBSTRUCTIONS TO VISIBILITY. N/A MEANS
CURRENT SKY AND/OR WEATHER CONDITIONS ARE NOT AVAILABLE.

MNZ060>063-068>070-110900-
   Twin Cities Metro

CITY           SKY/WX    TMP DP  RH WIND       PRES   REMARKS
TWIN CITIES    LGT SNOW  15  11  83 E10       30.06F FOG     WCI   2
ST PAUL        LGT SNOW  15  12  88 E7        30.09F FOG     WCI   5
CRYSTAL        LGT SNOW  14   9  80 E6        30.05F WCI   5
BLAINE         LGT SNOW  16  12  86 E9        30.06F WCI   4
LAKEVILLE      LGT SNOW  12  12 100 E9        30.04F WCI   0
EDEN PRAIRIE   LGT SNOW  16  11  80 E8        30.03F WCI   5
SOUTH ST PAUL  LGT SNOW  16  12  86 E7        30.07F WCI   6
LAKE ELMO      LGT SNOW  16  14  93 E8        30.08F WCI   5
$$
MNZ001>005-007-008-013>017-022>024-027-028-110900-
   Northwest Minnesota

CITY           SKY/WX    TMP DP  RH WIND       PRES   REMARKS
BEMIDJI        FLURRIES  -3  -6  87 E7        30.10F WCI -16
HALLOCK        CLOUDY    -4  -9  77 E8        30.18F WCI -19
ROSEAU         CLOUDY    -9 -15  77 E3        30.18F
WARROAD        CLOUDY     0  -6  78 E9        30.18F WCI -16
THIEF RVR FALL CLOUDY    -5  -9  83 E9        30.13F WCI -22
CROOKSTON      CLOUDY     0  -6  78 E10       30.14F WCI -17
FOSSTON        CLOUDY    -2  -6  84 E9        30.08F WCI -18
DETROIT LAKES  FLURRIES   9   3  78 E6        30.04F WCI  -1
MOORHEAD       MIX PCPN   9   1  72 E10       30.05F WCI  -6
PARK RAPIDS    FLURRIES   4  -2  76 E6        30.05F WCI  -7
$$
MNZ006-009>011-018-025>026-110900-
   North Central Minnesota

CITY           SKY/WX    TMP DP  RH WIND       PRES   REMARKS
BAUDETTE       CLOUDY    -8 -12  83 E6        30.17F WCI -21
INTL FALLS     CLOUDY   -13 -18  78 CALM      30.20F
WASKISH        CLOUDY    -8 -11  84 E6        30.15F WCI -21
BIG FORK       CLOUDY   -15 -20  76 CALM      30.15F
LONGVILLE      CLOUDY     1  -2  85 CALM      30.11F
GRAND RAPIDS   CLOUDY    -4  -7  87 E3        30.15S
CRANE LAKE     CLOUDY   -17 -20  83 CALM      30.23F
ORR            CLOUDY   -17 -24  70 CALM      30.14F
COOK           CLOUDY   -17 -20  83 CALM      30.17S
$$
MNZ012-019>021-037-110900-
   Northeast Minnesota

CITY           SKY/WX    TMP DP  RH WIND       PRES   REMARKS
DULUTH         CLOUDY     5   2  87 NE3       30.12F
ELY            CLOUDY    -9 -15  77 CALM      30.17S
HIBBING        CLOUDY   -10 -13  86 CALM      30.15S
EVELETH        CLOUDY    -3  -8  79 CALM      30.15F
DULUTH HARBOR  CLOUDY    12   5  73 CALM      30.20F
TWO HARBORS    CLOUDY     9   3  78 N3        30.15S
SILVER BAY     LGT SNOW   7   1  78 CALM      30.15F
GRAND MARAIS     N/A      9  -1  64 NW8       30.25R WCI  -3
G MARAIS ARPRT CLOUDY    -4  -9  77 N6        30.12F WCI -16
$$
MNZ029>031-032-039>041-046>048-054>057-064-110900-
   West Central Minnesota

CITY           SKY/WX    TMP DP  RH WIND       PRES   REMARKS
FERGUS FALLS   CLOUDY     9   3  78 E12G20    30.06F WCI  -6
WHEATON        LGT SNOW  12  10  92 E14       30.01F WCI  -3
MORRIS         LGT SNOW  12   9  85 E20       29.97F VSB 1   WCI  -6
ALEXANDRIA     LGT SNOW  10   6  84 E13       30.01F FOG     WCI  -5
ELBOW LAKE     LGT SNOW  10   6  87 E14       30.00F WCI  -7
WADENA         FLURRIES   7   1  78 E9        30.04F WCI  -7
GLENWOOD       LGT SNOW  10   9  92 E15       30.01S WCI  -6
APPLETON       LGT SNOW  16  10  79 E13G18    29.98F WCI   2
BENSON         LGT SNOW  12   9  85 SE8       29.99S WCI   1
ORTONVILLE     LGT SNOW  12   9  85 E9        29.97F VSB 3/4 WCI   0
MADISON        LGT SNOW  16  14  93 E13       29.96F VSB 1   WCI   2
WILLMAR        LGT SNOW  14  10  85 E12       30.01R WCI   0
$$
MNZ033>034-036-042>043-049>051-058-059-110900-
   Central Minnesota

CITY           SKY/WX    TMP DP  RH WIND       PRES   REMARKS
ST CLOUD       LGT SNOW  12   9  87 E8        30.05F FOG     WCI   0
PAYNESVILLE    LGT SNOW  12  11  96 E7        30.03S WCI   1
AITKIN         MIX PCPN   9   0  66 NE7       30.10F WCI  -3
PINE RIVER     FLURRIES   3   0  85 E7        30.12F WCI  -9
BRAINERD       CLOUDY     8   3  80 NE9       30.09F WCI  -5
LONG PRAIRIE   LGT SNOW  10   7  85 NE9       30.03F WCI  -2
LITTLE FALLS   FLURRIES  12   7  79 NE5       30.07F WCI   4
LITCHFIELD     LGT SNOW  14  10  85 E10       30.02S WCI   1
BUFFALO        LGT SNOW  13  10  85 NE10      30.05F WCI   0
MAPLE LAKE     LGT SNOW  14  11  90 E12       30.05F WCI   0
HUTCHINSON     LGT SNOW  15  12  89 E10       30.01F WCI   2
$$
MNZ037-044-045-052-053-110900-
   East Central Minnesota

CITY           SKY/WX    TMP DP  RH WIND       PRES   REMARKS
PRINCETON      LGT SNOW  12  10  92 NE7       30.07F WCI   2
MORA           FLURRIES  12   9  85 E6        30.12F WCI   3
CAMBRIDGE      LGT SNOW  14   7  73 NE7       30.07F WCI   4
RUSH CITY      CLOUDY    12   9  85 E7        30.11F WCI   2
MOOSE LAKE     CLOUDY     9   3  78 NE3       30.13S
HINCKLEY       FLURRIES  12   9  85 NE6       30.13F WCI   3
CLOQUET        CLOUDY     7   0  72 CALM      30.13F
MCGREGOR       CLOUDY     9   3  78 E3        30.13S
$$
MNZ071>073-080-081-089-090-097-098-110900-
   Southwest Minnesota

CITY           SKY/WX    TMP DP  RH WIND       PRES   REMARKS
MONTEVIDEO     LGT SNOW  12  10  92 SE15      29.99F VSB 3/4 WCI  -4
GRANITE FALLS  LGT SNOW  16  13  88 E13G18    29.98F VSB 1   WCI   2
CANBY          LGT SNOW  14  11  90 CALM      29.95F
MARSHALL       LGT SNOW  14  11  87 E13       29.93F FOG     WCI   0
REDWOOD FALLS  LGT SNOW  14  10  84 E9        29.97F VSB 3/4 WCI   2
OLIVIA         LGT SNOW  16  12  86 E14       29.98F WCI   1
PIPESTONE      CLOUDY    19  18  93 SE10      29.83F WCI   8
WINDOM         FLURRIES  19  16  86 MISG      29.89F
WORTHINGTON    MIX PCPN  19  17  92 SE17      29.86F WCI   4
JACKSON        CLOUDY    19  18  93 SE16      29.89F WCI   5
TRACY          CLOUDY    16  14  93 E9        29.92S FOG     WCI   4
SLAYTON        LGT SNOW  17  15  94 E12       29.88F WCI   4
$$
MNZ065>067-074>077-082>085-091>093-110900-
   South Central Minnesota

CITY           SKY/WX    TMP DP  RH WIND       PRES   REMARKS
MANKATO        LGT SNOW  17  14  88 E12       29.99F FOG     WCI   4
NEW ULM        LGT SNOW  16  12  86 E9        29.97F VSB 1   WCI   4
ST JAMES       LGT SNOW  19  18  93 E12       29.95F WCI   7
FAIRMONT       LGT SNOW  20  17  88 SE17      29.93F FOG     WCI   5
GLENCOE        LGT SNOW  15  14  94 E13       30.01F WCI   2
FARIBAULT      LGT SNOW  16  12  86 E9        30.01F VSB 1   WCI   4
OWATONNA       LGT SNOW  16  12  86 E13       29.99F WCI   2
WASECA         LGT SNOW  18  14  86 E15       29.99F WCI   3
ALBERT LEA     LGT SNOW  23  21  93 SE14      29.96F WCI  11
$$
MNZ078>079-086>088-094>096-110900-
   Southeast Minnesota

CITY           SKY/WX    TMP DP  RH WIND       PRES   REMARKS
ROCHESTER      LGT SNOW  15  13  91 E16       30.00F VSB 3/4 WCI  -1
RED WING       LGT SNOW  18  12  79 E8        30.07F WCI   7
STANTON        LGT SNOW  17  13  84 E12G17    30.03F WCI   5
DODGE CENTER   LGT SNOW  16  12  86 E13       29.99F WCI   2
WINONA         LGT SNOW  19  18  93 SE9       30.10F WCI   9
AUSTIN         LGT SNOW  19  18  93 SE13      29.98F WCI   7
PRESTON        LGT SNOW  17  15  91 E7        30.02F WCI   7
$$
ABBREVIATIONS USED IN REMARKS
   TC - TEMPERATURES IN CELSIUS
  WCI - WIND CHILL INDEX
   HX - HEAT INDEX
  VSB - VISIBILITY
$$




USA.gov is the U.S. government's official web portal to all federal, state and local government web resources and services.